Zurück zum Katalog

STARLINK-5644

AktivKommunikationVLEO
NORAD 55369·PAYLOAD·🇺🇸 United States

Gestartet Jan 26, 2023 von Cape Canaveral Space Force Station

Loading…

Nächste Überflüge (nächste 24 Stunden)

TLE

AktuellSource: CelesTrak SupGP

Epoche: Sep 15, 2026, 01:49 UTC

1 55369C 23013AQ  26258.07618056  .00018565  00000+0  67254-3 0  2582
2 55369  43.0013 331.7150 0001553 264.2418 343.8190 15.27562894    10

Verfolge STARLINK-5644 in Echtzeit mit AllMySat

Download on the App Store